| time (UTC) | temp F | wind direction | speed MPH | gust MPH | rain 1hr in | rain 24hr in | rain mn in | humidity % | barometer mb |
| 20260510204546 | 41 | 303 | 2.0 | 5.0 | 0.00 | 0.01 | 0.01 | 77 | 1008.3 |
| 20260510203037 | 41 | 297 | 2.0 | 4.0 | 0.00 | 0.01 | 0.01 | 78 | 1008.5 |
| 20260510201536 | 41 | 307 | 3.0 | 7.0 | 0.00 | 0.01 | 0.01 | 78 | 1008.5 |
| 20260510200035 | 40 | 297 | 3.0 | 7.0 | 0.00 | 0.01 | 0.01 | 77 | 1008.7 |
| 20260510194533 | 41 | 296 | 4.0 | 8.0 | 0.00 | 0.01 | 0.01 | 76 | 1008.7 |
| 20260510193031 | 41 | 284 | 4.0 | 9.0 | 0.00 | 0.01 | 0.01 | 79 | 1008.9 |
| 20260510191530 | 41 | 310 | 3.0 | 11.0 | 0.00 | 0.01 | 0.01 | 78 | 1008.9 |
| 20260510190031 | 41 | 282 | 7.0 | 10.0 | 0.00 | 0.01 | 0.01 | 75 | 1009.1 |
| 20260510184527 | 42 | 311 | 5.0 | 8.0 | 0.00 | 0.01 | 0.01 | 74 | 1009.2 |
| 20260510183028 | 42 | 301 | 6.0 | 13.0 | 0.00 | 0.01 | 0.01 | 73 | 1009.4 |
| 20260510181524 | 42 | 244 | 9.0 | 12.0 | 0.00 | 0.01 | 0.01 | 73 | 1009.5 |
| 20260510180022 | 43 | 264 | 7.0 | 13.0 | 0.00 | 0.01 | 0.01 | 72 | 1009.6 |
| 20260510174521 | 43 | 255 | 7.0 | 11.0 | 0.00 | 0.01 | 0.01 | 69 | 1009.8 |
| 20260510173018 | 43 | 284 | 6.0 | 12.0 | 0.00 | 0.01 | 0.01 | 70 | 1010.0 |
| 20260510171517 | 43 | 304 | 8.0 | 11.0 | 0.00 | 0.01 | 0.01 | 73 | 1010.2 |
| 20260510170020 | 42 | 312 | 8.0 | 12.0 | 0.00 | 0.01 | 0.01 | 77 | 1010.5 |
| 20260510164513 | 42 | 271 | 8.0 | 14.0 | 0.00 | 0.02 | 0.01 | 78 | 1010.6 |
| 20260510163012 | 43 | 267 | 11.0 | 16.0 | 0.00 | 0.02 | 0.01 | 79 | 1010.8 |
| 20260510161510 | 43 | 297 | 11.0 | 16.0 | 0.00 | 0.02 | 0.01 | 78 | 1011.0 |
| 20260510160008 | 44 | 281 | 9.0 | 14.0 | 0.00 | 0.02 | 0.01 | 70 | 1011.2 |
| 20260510154505 | 44 | 274 | 9.0 | 12.0 | 0.00 | 0.06 | 0.01 | 69 | 1011.6 |
| 20260510153007 | 44 | 312 | 9.0 | 13.0 | 0.00 | 0.06 | 0.01 | 71 | 1011.7 |
| 20260510151501 | 44 | 253 | 10.0 | 14.0 | 0.00 | 0.06 | 0.01 | 68 | 1012.0 |
| 20260510144558 | 44 | 286 | 10.0 | 14.0 | 0.00 | 0.10 | 0.01 | 70 | 1012.4 |
| 20260510143054 | 45 | 276 | 10.0 | 14.0 | 0.00 | 0.10 | 0.01 | 69 | 1012.6 |
| 20260510141553 | 45 | 269 | 9.0 | 16.0 | 0.00 | 0.10 | 0.01 | 70 | 1012.7 |
| 20260510140051 | 45 | 279 | 10.0 | 14.0 | 0.00 | 0.10 | 0.01 | 69 | 1013.0 |
| 20260510134553 | 44 | 275 | 10.0 | 14.0 | 0.00 | 0.17 | 0.01 | 69 | 1013.1 |
| 20260510133050 | 45 | 284 | 11.0 | 14.0 | 0.00 | 0.17 | 0.01 | 69 | 1013.3 |
| 20260510131545 | 44 | 281 | 9.0 | 16.0 | 0.00 | 0.17 | 0.01 | 70 | 1013.4 |
| 20260510130144 | 44 | 258 | 11.0 | 15.0 | 0.00 | 0.17 | 0.01 | 67 | 1013.5 |
| 20260510124556 | 44 | 277 | 10.0 | 16.0 | 0.00 | 0.19 | 0.01 | 75 | 1013.7 |
| 20260510123037 | 44 | 272 | 10.0 | 15.0 | 0.00 | 0.19 | 0.01 | 75 | 1014.0 |
| 20260510121538 | 44 | 304 | 10.0 | 14.0 | 0.00 | 0.19 | 0.01 | 71 | 1014.0 |
| 20260510120033 | 44 | 289 | 7.0 | 10.0 | 0.00 | 0.19 | 0.01 | 69 | 1014.2 |
| 20260510114527 | 44 | 300 | 6.0 | 11.0 | 0.00 | 0.20 | 0.01 | 70 | 1014.5 |
| 20260510113021 | 44 | 274 | 7.0 | 13.0 | 0.00 | 0.20 | 0.01 | 71 | 1014.7 |
| 20260510111516 | 44 | 238 | 7.0 | 12.0 | 0.00 | 0.20 | 0.01 | 74 | 1014.8 |
| 20260510110031 | 44 | 290 | 5.0 | 12.0 | 0.00 | 0.20 | 0.01 | 73 | 1014.8 |
| 20260510104513 | 43 | 275 | 7.0 | 12.0 | 0.00 | 0.20 | 0.01 | 73 | 1014.9 |
| 20260510103011 | 43 | 294 | 9.0 | 15.0 | 0.00 | 0.20 | 0.01 | 76 | 1015.1 |
| 20260510101509 | 43 | 300 | 13.0 | 18.0 | 0.00 | 0.20 | 0.01 | 76 | 1015.2 |
| 20260510100007 | 45 | 314 | 11.0 | 17.0 | 0.00 | 0.20 | 0.01 | 73 | 1015.3 |
| 20260510094507 | 45 | 277 | 9.0 | 14.0 | 0.00 | 0.20 | 0.01 | 73 | 1015.5 |
| 20260510093002 | 45 | 275 | 8.0 | 12.0 | 0.00 | 0.20 | 0.01 | 72 | 1015.7 |
| 20260510091600 | 44 | 355 | 6.0 | 11.0 | 0.00 | 0.20 | 0.01 | 73 | 1015.8 |
| 20260510090058 | 45 | 282 | 8.0 | 13.0 | 0.00 | 0.20 | 0.01 | 75 | 1015.9 |
| 20260510084556 | 44 | 291 | 9.0 | 13.0 | 0.01 | 0.20 | 0.01 | 76 | 1016.0 |
| 20260510083102 | 44 | 289 | 7.0 | 11.0 | 0.01 | 0.20 | 0.01 | 78 | 1016.1 |
| 20260510081550 | 43 | 213 | 1.0 | 4.0 | 0.01 | 0.20 | 0.01 | 79 | 1016.2 |
| 20260510080048 | 43 | 266 | 2.0 | 9.0 | 0.01 | 0.20 | 0.01 | 79 | 1016.5 |
| 20260510074547 | 43 | 252 | 4.0 | 7.0 | 0.00 | 0.19 | 0.00 | 78 | 1016.6 |
| 20260510073044 | 43 | 246 | 3.0 | 7.0 | 0.00 | 0.19 | 0.00 | 78 | 1016.8 |
| 20260510071543 | 43 | 260 | 4.0 | 7.0 | 0.00 | 0.19 | 0.00 | 80 | 1016.9 |
| 20260510070041 | 42 | 284 | 5.0 | 8.0 | 0.00 | 0.19 | 0.00 | 82 | 1017.0 |
| 20260510064541 | 42 | 292 | 2.0 | 9.0 | 0.00 | 0.19 | 0.00 | 79 | 1017.0 |
| 20260510063038 | 42 | 305 | 4.0 | 9.0 | 0.00 | 0.19 | 0.00 | 81 | 1017.0 |
| 20260510061537 | 42 | 317 | 4.0 | 8.0 | 0.00 | 0.19 | 0.00 | 84 | 1017.1 |
| 20260510060037 | 41 | 323 | 2.0 | 4.0 | 0.00 | 0.19 | 0.00 | 85 | 1017.0 |
| 20260510054535 | 41 | 321 | 1.0 | 6.0 | 0.00 | 0.19 | 0.00 | 84 | 1017.1 |
| 20260510053033 | 41 | 340 | 3.0 | 6.0 | 0.00 | 0.19 | 0.00 | 85 | 1017.1 |
| 20260510051532 | 41 | 290 | 1.0 | 5.0 | 0.00 | 0.19 | 0.00 | 86 | 1017.2 |
| 20260510050031 | 41 | 329 | 2.0 | 4.0 | 0.00 | 0.19 | 0.00 | 86 | 1017.2 |
| 20260510044530 | 41 | 327 | 3.0 | 9.0 | 0.00 | 0.19 | 0.00 | 85 | 1017.4 |
| 20260510043027 | 41 | 317 | 6.0 | 13.0 | 0.00 | 0.19 | 0.00 | 84 | 1017.6 |
| 20260510041524 | 41 | 273 | 4.0 | 12.0 | 0.00 | 0.19 | 0.00 | 83 | 1017.6 |
| 20260510040024 | 41 | 301 | 2.0 | 4.0 | 0.00 | 0.19 | 0.00 | 84 | 1017.7 |
| 20260510034527 | 40 | 278 | 1.0 | 4.0 | 0.00 | 0.19 | 0.00 | 85 | 1017.7 |
| 20260510033024 | 40 | 329 | 0.0 | 0.0 | 0.00 | 0.19 | 0.00 | 84 | 1017.8 |
| 20260510031520 | 41 | 317 | 1.0 | 4.0 | 0.00 | 0.19 | 0.00 | 84 | 1017.9 |
| 20260510030024 | 41 | 330 | 2.0 | 9.0 | 0.00 | 0.19 | 0.00 | 83 | 1018.0 |
| 20260510024517 | 40 | 321 | 6.0 | 12.0 | 0.00 | 0.19 | 0.00 | 85 | 1018.2 |
| 20260510023014 | 40 | 347 | 0.0 | 3.0 | 0.00 | 0.19 | 0.00 | 87 | 1018.3 |
| 20260510021519 | 40 | 304 | 1.0 | 5.0 | 0.00 | 0.19 | 0.00 | 87 | 1018.3 |
| 20260510020011 | 40 | 333 | 2.0 | 4.0 | 0.00 | 0.19 | 0.00 | 87 | 1018.3 |
| 20260510014510 | 40 | 331 | 2.0 | 4.0 | 0.00 | 0.19 | 0.00 | 87 | 1018.5 |
| 20260510013007 | 40 | 317 | 0.0 | 2.0 | 0.00 | 0.19 | 0.00 | 86 | 1018.6 |
| 20260510011504 | 40 | 309 | 1.0 | 4.0 | 0.00 | 0.19 | 0.00 | 85 | 1018.8 |
| 20260510010001 | 41 | 321 | 1.0 | 3.0 | 0.00 | 0.19 | 0.00 | 85 | 1018.9 |
| 20260510004559 | 42 | 301 | 1.0 | 4.0 | 0.00 | 0.19 | 0.00 | 85 | 1019.2 |
| 20260510003106 | 41 | 302 | 3.0 | 6.0 | 0.00 | 0.19 | 0.00 | 88 | 1019.3 |
| 20260510001556 | 41 | 320 | 0.0 | 0.0 | 0.00 | 0.19 | 0.00 | 88 | 1019.5 |
| 20260510000055 | 41 | 320 | 0.0 | 3.0 | 0.00 | 0.19 | 0.00 | 87 | 1019.6 |
| 20260509234601 | 41 | 320 | 0.0 | 2.0 | 0.00 | 0.19 | 0.00 | 87 | 1019.8 |
| 20260509233050 | 42 | 314 | 0.0 | 2.0 | 0.00 | 0.19 | 0.00 | 87 | 1019.9 |
| 20260509231554 | 42 | 314 | 1.0 | 7.0 | 0.00 | 0.19 | 0.00 | 87 | 1020.1 |
| 20260509230051 | 42 | 309 | 2.0 | 5.0 | 0.00 | 0.19 | 0.00 | 88 | 1020.3 |
| 20260509224554 | 41 | 323 | 2.0 | 3.0 | 0.00 | 0.19 | 0.00 | 88 | 1020.3 |
| 20260509223047 | 41 | 331 | 0.0 | 2.0 | 0.00 | 0.19 | 0.00 | 87 | 1020.4 |
| 20260509221541 | 41 | 336 | 1.0 | 4.0 | 0.00 | 0.19 | 0.00 | 86 | 1020.4 |
| 20260509220036 | 41 | 309 | 1.0 | 5.0 | 0.00 | 0.19 | 0.00 | 87 | 1020.7 |
| 20260509214539 | 41 | 327 | 0.0 | 2.0 | 0.00 | 0.19 | 0.19 | 87 | 1020.8 |
| 20260509213033 | 41 | 312 | 2.0 | 4.0 | 0.00 | 0.19 | 0.19 | 87 | 1020.9 |
| 20260509211531 | 41 | 312 | 1.0 | 3.0 | 0.00 | 0.19 | 0.19 | 87 | 1021.0 |
| 20260509210030 | 42 | 316 | 0.0 | 2.0 | 0.00 | 0.19 | 0.19 | 87 | 1021.1 |